Lapse_Rate
6.6 6.7 6.6 6.7 7.3 7.3 7.5 8.0 7.9 7.8 8.3 8.1 8.6 8.8 8.5 8.0 8.2 8.2 8.4 8.5 8.0 8.3 8.6 8.7 8.6 8.5 8.4 8.3 8.4 8.6 8.5 8.5 8.6 8.4 8.5 8.2 8.1 8.1 7.7 7.6 7.6 7.5 7.4 7.6 7.3 7.5 7.3 7.0 6.8
7.0 7.0 7.3 7.7 7.9 7.7 7.9 8.0 8.5 8.6 8.6 8.3 8.5 8.1 8.1 8.2 8.0 8.1 8.4 8.3 8.1 8.5 8.4 8.9 8.6 8.6 8.4 8.5 8.7 8.5 8.4 8.6 8.5 8.2 8.2 8.1 8.0 7.9 7.8 7.9 7.7 7.6 7.5 7.5 7.2 7.1 7.0 6.6 6.6
7.4 7.5 7.7 8.2 8.3 8.2 8.3 8.2 8.4 8.6 8.3 8.3 8.4 8.1 8.2 8.2 8.2 8.5 8.4 8.5 8.4 8.6 8.7 8.7 8.7 8.7 8.7 8.5 8.5 8.6 8.6 8.5 8.2 8.1 8.0 7.9 7.7 7.7 7.9 7.9 7.7 7.6 7.4 7.2 6.9 6.9 6.9 6.7 6.9
7.8 8.3 8.3 8.5 8.4 8.2 8.4 8.8 8.8 8.7 8.7 8.6 8.2 8.1 8.1 8.1 8.0 8.4 8.3 8.2 8.2 8.2 8.2 8.4 8.5 8.6 8.6 8.5 8.3 8.2 8.2 8.1 8.0 7.8 7.7 7.7 7.7 7.8 7.9 7.9 7.8 7.4 7.3 7.1 6.9 6.5 6.5 6.4 6.4
8.4 8.6 8.6 8.0 8.3 8.6 9.0 8.8 8.6 8.5 8.5 8.3 8.1 8.0 8.0 8.2 7.9 8.0 8.6 8.2 8.0 7.9 8.2 8.3 8.3 8.3 8.2 8.1 8.0 7.9 7.7 7.7 7.6 7.6 7.6 7.6 7.7 7.9 8.0 7.8 7.8 7.2 7.1 6.9 6.9 6.8 6.8 6.6 6.5
8.7 8.4 8.4 8.3 8.4 8.9 9.0 8.6 8.1 8.0 8.0 8.1 8.1 8.0 8.0 8.1 7.9 8.1 8.3 8.4 8.1 8.0 8.0 8.2 8.5 8.4 8.0 7.8 7.7 7.6 7.4 7.4 7.5 7.5 7.5 7.5 7.6 7.6 7.5 7.5 7.7 7.1 7.2 7.0 6.8 6.7 6.7 6.6 6.3
8.5 8.5 8.5 8.1 8.0 8.6 8.6 8.4 8.2 8.0 8.0 8.2 8.1 8.2 8.2 8.0 7.9 8.1 8.2 8.2 8.1 8.0 7.8 8.0 8.1 7.7 7.4 7.4 7.3 7.3 7.2 7.1 7.2 7.3 7.3 7.3 7.2 7.3 7.4 7.3 7.2 7.1 7.1 7.1 6.8 6.5 6.3 6.4 6.2
8.4 8.2 8.1 8.3 8.5 8.3 8.1 8.2 8.1 8.0 8.0 7.9 8.0 8.0 8.2 8.1 8.1 8.3 8.0 7.9 7.8 7.9 7.7 7.6 7.5 7.4 7.2 7.3 7.1 7.0 7.0 7.0 6.9 7.0 7.1 7.0 7.0 7.0 7.0 6.9 7.0 7.2 7.3 7.5 7.3 6.9 6.7 6.6 6.2
8.4 8.0 8.2 8.4 8.4 8.1 8.1 8.0 8.0 7.9 8.0 7.7 7.8 7.9 7.9 7.9 7.9 8.0 7.7 7.5 7.8 7.7 7.3 7.3 7.3 7.3 7.2 7.1 7.2 7.1 7.1 6.9 6.8 7.0 7.1 7.0 7.0 7.0 7.0 7.1 7.1 7.2 7.3 7.4 7.7 7.6 7.5 7.6 7.4
8.5 8.7 8.5 8.5 8.3 8.0 8.0 7.7 7.7 7.6 7.5 7.6 7.7 7.6 7.5 7.6 7.6 7.5 7.3 7.4 7.5 7.0 6.9 6.9 6.9 7.1 7.3 7.4 7.6 7.6 7.7 7.3 7.2 7.4 7.2 7.0 6.9 6.9 6.9 7.0 7.0 7.1 7.0 7.0 7.1 7.4 7.5 7.4 7.5
8.3 8.3 8.2 8.3 8.4 8.2 8.0 7.7 7.6 7.6 7.4 7.6 7.6 7.7 7.8 7.8 7.7 7.5 7.5 7.3 7.0 6.9 6.8 7.0 6.9 7.1 7.4 7.5 7.6 7.6 7.6 7.6 7.5 7.4 7.4 7.4 7.2 7.1 7.0 7.0 6.9 7.0 6.9 6.8 6.7 6.6 6.9 7.1 7.1
8.2 8.3 8.4 8.6 8.5 8.3 8.0 8.0 7.7 7.5 7.5 7.5 7.5 7.7 7.7 7.8 7.8 7.5 7.6 7.2 7.2 7.2 7.3 7.0 6.9 7.1 7.2 7.3 7.3 7.3 7.3 7.2 7.1 7.0 7.0 6.9 6.9 6.9 6.7 6.7 6.6 6.6 6.6 6.6 6.6 6.5 6.5 6.7 6.9
8.2 8.1 8.1 7.9 8.0 8.2 8.1 8.0 7.8 8.0 7.6 7.7 7.8 7.9 7.8 7.9 7.8 7.5 7.1 7.1 7.4 7.4 7.3 7.5 7.4 7.2 7.2 7.1 7.0 7.0 6.9 6.9 6.9 6.7 6.7 6.7 6.6 6.5 6.4 6.4 6.4 6.4 6.2 6.3 6.3 6.4 6.3 6.3 6.3
7.9 8.1 7.8 7.9 7.8 8.0 7.9 8.0 8.1 8.1 7.9 8.0 8.0 8.0 7.7 7.7 7.7 7.5 7.4 7.2 7.1 7.0 7.2 7.2 7.1 7.0 7.0 7.0 6.8 6.6 6.6 6.6 6.6 6.5 6.4 6.4 6.3 6.2 6.2 6.1 6.1 6.0 6.0 6.1 6.1 6.2 6.3 6.3 6.3
7.6 7.8 7.7 7.9 7.6 7.6 7.5 7.8 7.8 7.8 7.8 7.9 7.9 7.9 7.7 7.7 7.6 7.4 7.2 7.2 7.0 6.9 7.0 6.9 7.0 6.9 6.7 6.7 6.6 6.4 6.4 6.3 6.3 6.3 6.3 6.1 5.8 5.7 5.8 5.9 6.0 6.0 6.0 6.0 6.0 6.0 6.0 6.1 6.2
7.8 7.7 7.7 7.8 7.7 7.5 7.6 7.7 7.8 7.6 7.7 7.8 7.7 7.6 7.6 7.5 7.4 7.1 7.1 7.0 6.8 6.7 6.8 6.7 6.5 6.7 6.6 6.5 6.3 6.3 6.3 6.3 6.3 6.1 6.1 5.9 5.8 5.6 5.6 5.8 5.7 5.7 5.7 5.7 5.7 5.6 5.5 5.6 5.7
7.7 7.4 7.3 7.5 7.4 7.3 7.3 7.6 7.8 7.4 7.5 7.6 7.5 7.4 7.3 7.2 7.4 7.1 6.9 6.8 6.7 6.6 6.5 6.3 6.3 6.3 6.3 6.3 6.1 6.0 6.1 6.1 6.0 6.0 5.9 5.7 5.7 5.6 5.5 5.5 5.3 5.1 5.3 5.4 5.3 5.3 5.3 5.2 5.2
7.3 7.5 7.7 7.4 7.4 7.5 7.5 7.7 7.6 7.6 7.9 7.9 7.9 7.6 7.2 7.4 7.2 7.1 6.9 6.8 6.7 6.4 6.3 6.3 6.3 6.3 6.1 6.0 5.9 5.9 5.9 5.8 5.5 5.2 5.3 5.4 5.5 5.4 5.1 5.1 5.1 5.1 5.2 5.4 5.4 5.3 5.3 5.2 5.1
7.1 7.2 7.3 7.4 7.2 7.6 7.9 7.8 7.8 8.1 7.8 7.9 7.9 7.6 7.4 7.5 7.4 7.4 7.6 7.5 7.2 6.9 6.7 6.4 6.4 6.3 6.3 6.2 6.0 6.0 5.9 5.9 5.7 5.2 5.0 5.0 5.2 5.3 5.0 4.8 4.9 4.9 5.0 5.1 5.1 5.1 5.2 4.9 4.9
7.1 7.3 7.2 7.5 7.4 7.1 7.6 8.0 8.3 8.3 7.9 8.0 8.1 8.2 7.8 7.8 7.8 7.6 7.4 7.1 7.1 7.3 7.3 7.2 6.9 6.9 6.6 6.4 6.1 6.1 6.1 6.1 6.0 5.7 5.3 5.1 5.0 5.0 5.1 5.0 4.6 4.4 4.5 4.6 4.8 4.8 4.8 4.8 4.8
7.1 7.0 7.0 6.9 7.2 7.4 7.3 7.7 7.8 7.9 7.9 8.0 8.1 7.9 7.9 7.9 7.7 7.1 6.9 6.9 7.1 7.2 7.1 7.4 7.3 7.2 6.9 6.2 6.0 6.0 6.0 6.0 5.8 5.6 5.5 5.3 5.1 5.0 4.9 4.5 4.2 3.9 3.7 3.8 4.0 4.5 4.7 4.6 4.8
7.0 6.8 7.0 7.0 7.0 7.1 6.8 7.1 8.0 7.9 7.9 7.8 7.7 7.8 7.6 7.0 6.8 6.7 6.8 6.9 6.7 6.8 6.9 6.9 6.7 6.7 6.4 6.0 5.6 5.6 5.3 5.4 5.7 5.6 5.5 5.4 5.2 5.2 5.1 4.8 4.5 4.2 3.9 3.8 3.9 3.9 4.0 4.5 5.1
6.5 6.7 7.0 7.3 7.3 7.2 7.1 7.2 8.0 7.7 7.7 7.9 7.7 7.7 7.2 6.8 6.8 7.0 6.8 6.5 6.5 6.5 6.5 6.3 6.2 5.9 5.7 5.2 5.1 5.3 5.4 5.5 5.5 5.4 5.2 5.3 5.3 5.6 5.7 5.6 5.3 5.0 4.5 4.3 4.2 4.0 4.1 4.4 4.9
6.1 6.7 7.1 7.3 7.5 6.7 7.0 6.8 7.9 7.5 8.0 8.1 7.9 7.4 7.1 7.1 7.2 7.2 7.0 6.5 6.4 6.4 6.6 6.8 6.0 5.8 5.8 5.5 5.2 5.9 5.9 5.9 5.9 5.7 5.5 5.3 5.3 5.4 5.0 5.4 5.3 5.0 4.7 4.7 5.0 5.1 5.1 5.1 5.4
6.3 6.7 6.5 5.9 5.3 5.4 7.4 7.3 6.7 7.1 7.3 7.7 7.7 7.6 7.6 7.4 7.0 6.9 6.8 6.8 6.7 6.4 6.8 6.4 6.1 5.6 5.8 5.9 5.9 6.5 6.6 6.6 6.3 6.1 5.8 5.6 5.4 5.2 5.4 5.5 5.5 5.5 5.7 5.6 5.9 6.3 6.5 6.4 6.4
6.2 6.1 5.9 5.0 4.1 5.7 7.1 7.2 6.8 7.2 7.6 7.3 7.2 7.2 7.2 7.3 7.0 7.0 6.9 6.7 6.9 7.1 6.2 5.9 6.0 6.0 6.1 6.2 6.3 6.3 6.6 6.7 6.5 6.2 6.2 6.1 6.0 5.6 5.5 5.3 5.7 5.6 6.3 6.9 7.2 7.0 7.0 6.9 6.4
6.2 6.1 6.1 6.1 5.9 5.4 6.7 7.3 6.9 8.1 7.8 7.2 7.2 7.3 6.8 6.8 6.9 7.2 7.3 7.0 6.8 6.3 6.2 6.0 6.1 6.5 6.4 6.2 6.2 6.1 6.4 6.3 6.4 6.3 6.2 6.1 6.0 5.8 5.9 6.2 6.6 6.9 7.1 6.7 6.6 6.6 6.5 6.5 6.6
6.4 6.2 6.1 5.9 4.2 4.9 6.1 6.6 7.1 8.0 8.0 8.0 7.3 6.9 7.0 6.9 7.1 7.4 7.5 7.1 6.5 6.5 6.5 6.7 6.4 6.3 6.3 6.1 6.0 6.0 5.8 5.8 5.9 5.8 5.4 5.1 5.0 5.3 5.8 6.3 6.5 6.5 6.4 6.3 6.4 6.5 6.5 6.4 6.3
6.4 6.1 5.7 5.8 6.0 5.2 5.0 5.9 7.1 7.4 7.4 7.6 7.4 7.3 7.5 7.3 7.5 7.0 6.5 6.5 6.2 6.2 6.2 6.4 6.5 6.1 6.1 6.1 6.0 5.9 5.9 5.6 5.5 5.3 5.2 5.1 4.9 5.0 5.4 5.7 6.1 6.2 6.0 6.1 6.1 6.0 6.1 6.2 6.0
6.4 6.6 5.9 5.4 5.6 5.5 5.8 5.4 7.4 6.8 7.2 6.7 6.6 7.0 6.9 7.0 6.9 6.9 7.0 7.0 6.8 6.9 6.8 6.6 6.5 6.3 6.3 6.2 6.2 6.0 5.7 5.4 5.4 5.4 5.2 5.1 5.0 5.0 5.4 5.6 6.0 6.1 6.1 6.0 6.0 6.0 5.8 5.5 5.4
Wind_Speed
10 15 2 4 4 5 2 3 2 5 4 6 10 13 9 5 4 5 1 5 9 7 9 10 12 13 14 17 16 16 16 15 8 9 17 17 17 16 14 13 10 2 7 8 10 15 12 13 16
6 4 4 3 5 4 4 4 3 5 8 11 10 8 7 5 4 7 4 6 10 11 8 13 12 15 16 17 15 14 15 13 11 11 14 14 14 12 10 7 1 5 2 8 15 11 9 11 14
2 1 4 4 4 5 1 4 3 8 5 2 5 4 4 5 6 7 7 10 11 9 9 12 13 16 16 16 14 14 13 12 11 11 11 10 12 10 9 5 3 5 1 5 10 10 7 14 14
1 5 4 5 3 0 2 6 3 2 8 8 4 7 4 3 6 8 10 13 9 7 10 12 13 14 15 13 12 10 11 11 12 11 10 8 7 6 4 6 7 4 3 0 3 7 6 10 11
4 3 4 4 4 1 4 6 8 6 4 5 3 3 4 4 8 14 11 13 11 7 12 12 13 12 12 11 10 10 9 11 11 11 9 7 4 2 1 2 6 7 4 2 3 9 9 10 11
4 3 5 3 3 4 4 8 8 5 3 3 6 4 3 4 8 9 9 12 13 10 12 14 14 14 13 12 12 11 11 12 12 11 11 9 8 6 6 5 6 9 8 4 6 9 11 13 15
6 4 4 4 4 4 3 3 6 6 4 3 9 5 1 3 7 9 9 9 11 12 9 10 11 11 11 10 9 8 9 10 11 11 12 11 10 10 8 8 7 6 6 9 7 8 9 9 9
5 4 4 3 3 3 6 3 7 6 2 6 3 5 4 6 5 7 6 6 7 8 10 11 11 9 8 8 7 8 5 8 9 10 11 11 10 8 7 7 6 4 3 3 2 2 4 4 1
4 5 3 3 4 2 6 4 4 3 3 2 1 6 3 9 8 6 6 5 5 4 6 10 12 11 8 7 8 11 10 8 9 9 11 10 9 8 4 3 4 3 4 6 7 8 7 6 5
6 4 1 3 5 1 3 3 1 3 5 5 4 5 6 9 6 6 5 7 5 8 8 6 9 9 11 10 12 11 13 11 10 9 10 8 7 7 7 5 4 4 5 7 8 8 8 6 4
2 2 3 3 2 2 2 4 4 4 3 4 10 8 8 6 8 9 6 8 8 6 4 6 6 8 6 5 11 9 11 11 8 8 9 9 7 7 6 5 6 5 3 2 2 6 8 9 9
4 3 4 3 1 2 2 1 4 2 5 6 11 12 8 9 9 8 6 10 9 6 7 5 6 6 6 6 6 6 5 7 7 8 8 9 6 7 8 7 7 4 3 2 2 2 5 7 7
3 2 3 5 5 4 1 3 5 4 4 6 10 9 10 9 8 5 9 8 8 7 6 7 6 5 6 4 5 6 6 8 9 11 9 13 8 5 8 6 6 5 5 3 2 2 2 4 7
2 3 4 7 5 4 4 3 2 8 4 7 9 11 10 9 8 6 7 9 9 9 9 8 8 7 9 4 3 4 5 6 6 6 6 8 8 6 6 4 5 4 5 3 2 1 1 2 3
2 4 7 7 3 4 4 3 5 8 8 11 10 9 9 9 8 9 11 9 10 7 8 8 8 7 7 6 6 5 5 5 5 6 7 8 8 5 5 4 4 6 4 3 1 1 1 3 4
3 4 4 6 7 3 4 7 9 5 9 12 11 8 8 9 11 8 8 7 7 9 9 7 5 6 5 5 5 4 6 5 6 7 9 9 8 8 6 4 3 6 5 5 2 1 1 1 2
6 4 4 9 5 4 3 7 8 5 9 10 8 8 7 5 6 7 6 4 6 8 8 6 6 6 5 3 3 3 5 6 9 9 10 11 10 9 6 5 7 8 5 3 3 2 2 1 3
4 5 6 1 6 5 5 8 9 7 7 11 7 7 6 7 2 6 9 8 8 8 7 7 4 5 4 2 2 0 1 4 7 10 12 13 13 12 9 8 7 6 2 3 2 3 2 3 3
1 3 3 4 3 7 6 8 13 5 5 8 8 9 8 7 0 6 8 10 10 8 8 7 6 5 3 1 1 2 4 3 4 7 15 16 16 16 12 7 7 7 5 6 5 3 3 2 0
6 3 4 6 6 3 9 11 7 6 3 7 10 9 9 6 7 7 7 3 4 7 7 7 7 6 5 3 4 4 3 4 4 4 11 17 18 18 12 7 6 6 4 6 5 5 2 2 1
3 2 4 6 7 3 5 6 6 3 4 5 4 6 6 8 8 6 5 6 4 6 8 8 8 8 8 8 2 2 1 2 2 4 4 8 18 18 16 13 6 7 6 5 4 4 4 2 1
4 4 4 6 4 2 4 3 4 3 2 2 4 6 6 7 4 2 4 5 7 8 5 6 7 8 7 7 5 8 8 9 8 9 5 5 16 16 15 13 8 6 4 5 4 4 2 2 1
7 7 8 4 4 3 9 3 6 4 4 6 4 6 5 4 5 4 3 3 7 6 7 7 6 6 8 5 7 6 8 10 9 4 7 7 7 11 11 10 8 8 6 6 6 3 4 2 2
6 6 5 4 3 3 3 1 4 5 5 5 3 3 6 4 4 5 4 4 3 4 2 3 5 7 8 8 9 8 10 13 7 9 7 4 3 2 3 8 6 6 4 5 5 5 2 3 4
8 6 4 5 5 4 5 4 2 1 7 8 8 5 3 6 6 4 5 4 5 5 6 4 4 6 7 7 9 9 10 11 11 11 6 4 4 5 6 6 6 5 5 6 5 4 5 6 5
4 5 4 1 0 5 7 1 3 5 2 4 6 8 6 1 4 1 6 6 6 7 8 7 7 8 9 8 10 7 7 4 5 5 2 3 5 5 6 8 6 7 9 6 5 7 6 6 5
4 4 1 5 2 3 5 5 8 4 8 6 2 3 6 8 7 8 6 6 7 7 6 7 8 10 10 10 5 4 3 3 3 5 6 6 9 8 9 9 7 7 6 7 9 4 6 5 5
3 1 5 4 2 3 5 6 5 7 13 14 5 3 7 6 8 7 6 5 2 3 4 6 9 11 10 8 3 1 3 4 5 6 7 7 6 6 6 9 4 6 7 6 7 5 5 5 5
5 4 3 1 4 3 2 6 4 11 10 11 5 5 5 5 5 5 5 5 6 6 6 6 7 7 7 6 3 5 4 4 5 6 6 6 4 5 6 6 6 6 6 6 5 6 6 6 6
2 3 5 3 5 3 3 10 14 7 14 7 5 4 5 4 4 4 3 5 7 7 6 6 6 6 7 5 6 6 4 5 6 6 6 6 5 3 4 4 5 5 5 5 5 6 6 6 7
Wind_Direction
325 320 109 45 60 65 354 7 218 46 48 350 70 96 115 94 57 120 175 79 132 97 101 91 97 88 81 80 73 67 67 70 93 127 135 139 141 155 163 161 165 142 12 62 64 83 74 85 71
319 347 43 71 83 53 315 277 82 91 133 130 80 106 65 73 73 113 97 103 112 106 103 94 89 87 87 87 84 81 79 85 105 124 139 145 158 174 182 157 120 28 49 78 70 99 135 129 123
273 76 82 96 115 143 135 300 304 69 59 119 109 68 60 105 136 141 149 112 97 101 104 103 102 100 94 92 89 82 87 92 109 126 138 153 174 188 179 164 183 222 89 98 98 103 155 195 194
49 5 28 73 87 352 105 352 293 86 23 27 77 65 39 266 135 155 152 116 102 108 122 110 101 99 100 99 98 98 97 100 97 112 140 160 181 195 204 170 181 217 293 12 181 148 192 203 218
37 51 43 39 297 244 70 51 36 72 94 342 318 63 84 360 144 145 142 128 130 151 144 131 123 119 115 119 122 116 106 95 91 91 95 132 129 118 87 182 209 219 208 261 181 204 214 236 254
39 97 54 342 276 323 80 97 85 75 165 174 54 86 181 194 147 152 134 140 151 154 162 151 149 141 143 145 142 135 130 122 112 108 103 100 104 92 84 104 189 225 231 234 221 243 221 192 217
126 85 180 94 270 56 16 110 92 100 104 13 134 113 227 277 185 137 152 158 162 153 142 155 159 155 152 144 143 142 133 127 127 125 122 125 125 121 115 105 109 131 172 201 210 233 228 232 217
109 93 43 360 211 47 347 33 151 85 22 129 185 166 197 213 184 124 119 158 137 141 152 166 159 166 154 146 148 137 137 129 140 142 139 141 132 136 142 131 121 124 115 121 124 177 201 201 290
104 66 32 320 73 229 335 87 346 110 88 132 212 148 203 157 135 120 142 97 87 124 169 174 165 169 176 174 160 151 154 160 153 160 156 144 137 134 125 95 82 70 64 71 56 41 33 39 29
74 84 96 228 165 248 131 106 317 74 26 41 33 30 106 129 155 151 196 144 159 151 168 166 151 169 185 197 172 174 165 169 166 170 164 161 153 161 144 128 120 85 41 13 7 8 1 10 4
70 116 210 314 146 132 46 40 354 60 28 192 171 166 161 160 183 196 171 174 177 168 134 150 145 131 111 134 174 187 176 179 182 175 170 151 145 147 143 139 132 119 118 97 8 346 342 336 328
81 155 173 228 238 98 64 49 355 181 204 178 176 172 170 178 197 213 177 154 167 164 160 165 132 113 87 112 150 180 159 167 151 158 146 149 153 153 166 169 167 181 201 237 275 315 314 320 316
82 243 168 215 208 251 161 217 219 254 234 170 158 165 180 188 204 225 173 150 162 163 170 176 134 135 125 114 124 121 126 149 163 159 162 174 172 174 183 194 184 188 188 161 131 33 308 279 286
279 281 266 244 237 265 179 270 82 262 148 198 167 178 175 177 186 128 150 162 171 173 174 170 165 163 144 150 157 141 155 156 157 160 146 155 169 176 190 191 193 176 164 162 114 115 287 292 318
300 296 322 270 207 242 149 327 215 256 171 195 203 191 187 200 195 185 187 183 173 173 155 172 173 170 151 155 175 175 196 173 171 172 145 156 167 162 163 158 171 180 190 173 149 314 337 329 323
328 52 340 303 143 268 92 266 270 275 172 201 212 199 196 217 215 218 214 200 159 139 159 171 153 154 146 157 166 205 210 199 198 198 181 174 178 174 169 162 179 184 185 182 174 175 278 292 300
13 320 345 355 62 350 204 265 264 335 201 218 212 204 217 288 319 268 234 178 144 133 136 114 124 150 153 148 171 200 227 214 223 219 209 200 194 186 177 190 205 189 176 186 192 208 189 268 309
307 344 341 315 333 355 261 269 293 341 167 226 203 143 124 130 15 292 134 118 110 117 123 137 152 156 151 127 157 296 251 234 222 224 220 213 205 200 177 194 216 205 170 201 207 210 226 225 257
104 20 332 285 266 357 292 288 279 181 120 101 105 114 118 114 251 68 105 126 129 137 140 151 163 199 150 172 192 232 233 230 238 218 215 218 212 211 190 194 201 200 186 203 202 197 222 287 217
42 30 317 286 306 329 304 300 318 118 166 156 139 132 123 104 86 107 113 120 150 163 168 177 198 204 205 187 204 190 195 224 224 222 212 220 218 212 204 191 198 193 182 196 192 185 182 243 173
326 161 278 254 322 330 336 352 359 356 90 130 116 135 130 128 122 129 148 178 175 191 201 206 210 212 222 222 228 244 309 295 263 244 229 214 209 214 207 206 188 192 188 192 191 157 157 190 283
307 244 283 291 34 301 45 273 286 263 3 93 102 121 104 84 73 113 175 182 211 231 241 240 233 232 234 229 225 217 234 238 239 236 219 221 205 213 210 206 195 179 155 134 129 101 102 109 153
255 303 277 294 163 88 342 54 271 86 231 225 67 75 84 136 132 141 161 189 224 243 239 246 269 286 272 251 233 236 245 248 253 243 223 223 221 213 196 172 156 146 136 130 122 104 105 135 183
286 311 3 31 92 52 257 146 310 309 285 70 71 148 142 141 190 179 140 139 76 29 7 338 301 293 295 293 278 242 244 255 252 251 235 210 166 133 111 122 109 88 94 110 81 65 19 7 357
14 31 3 14 12 228 322 18 262 295 106 140 173 162 204 214 216 248 235 96 90 53 42 37 5 311 303 297 289 275 258 257 256 256 243 166 138 104 123 132 114 100 95 62 46 28 7 298 285
333 88 127 228 349 282 326 3 226 171 104 114 136 178 197 174 218 312 77 76 33 31 30 6 13 334 320 303 295 297 289 270 264 272 186 124 110 93 86 63 56 57 35 30 355 342 299 252 247
328 30 152 107 7 43 283 284 323 246 70 91 149 259 50 24 26 71 84 50 29 21 356 347 337 326 324 317 313 321 350 29 98 86 92 105 111 111 98 84 55 30 351 307 268 253 262 252 259
79 254 31 9 27 290 301 296 243 320 337 346 2 326 58 64 54 41 55 59 348 260 285 336 343 327 319 311 282 286 114 123 116 106 108 105 110 114 92 41 346 252 239 246 257 256 259 264 273
353 23 17 144 134 218 265 265 237 315 321 306 54 58 98 67 75 83 54 13 344 313 304 299 288 300 317 307 239 223 189 142 119 112 110 110 119 136 117 189 217 234 241 245 255 267 279 270 271
135 108 99 92 321 272 233 270 275 284 331 94 89 57 29 56 70 42 337 290 295 284 284 306 310 330 330 290 236 225 187 143 121 117 117 115 106 104 167 224 241 262 271 269 269 266 276 265 268